Time,TemperatureF,DewpointF,PressureIn,WindDirection,WindDirectionDegrees,WindSpeedMPH,WindSpeedGustMPH,Humidity,HourlyPrecipIn,Conditions,Clouds,dailyrainin,SoftwareType,DateUTC
2013-02-02 00:01:00,22.3,16.5,30.37,NW,315,0.0,0.0,78,0.00,CLR,,0.00,WeatherDisplay:10.37,2013-02-02 05:01:00,
2013-02-02 00:06:00,22.3,16.5,30.36,NW,315,0.0,0.0,78,0.00,CLR,,0.00,WeatherDisplay:10.37,2013-02-02 05:06:00,
2013-02-02 00:11:00,22.3,16.8,30.36,NW,315,0.0,0.0,79,0.00,CLR,,0.00,WeatherDisplay:10.37,2013-02-02 05:11:00,
2013-02-02 00:16:00,22.3,16.8,30.35,West,270,0.0,0.0,79,0.00,CLR,,0.00,WeatherDisplay:10.37,2013-02-02 05:16:00,
2013-02-02 00:21:00,22.3,16.8,30.35,North,0,0.0,0.0,79,0.00,CLR,,0.00,WeatherDisplay:10.37,2013-02-02 05:21:00,
2013-02-02 00:26:00,22.5,17.2,30.35,North,0,0.0,0.0,80,0.00,CLR,,0.00,WeatherDisplay:10.37,2013-02-02 05:26:00,
2013-02-02 00:31:00,22.5,17.2,30.35,North,0,0.0,0.0,80,0.00,CLR,,0.00,WeatherDisplay:10.37,2013-02-02 05:31:00,
2013-02-02 00:36:00,22.5,17.2,30.35,North,0,0.0,0.0,80,0.00,CLR,,0.00,WeatherDisplay:10.37,2013-02-02 05:36:00,
2013-02-02 00:41:00,22.5,17.2,30.35,North,0,0.0,0.0,80,0.00,CLR,,0.00,WeatherDisplay:10.37,2013-02-02 05:41:00,
2013-02-02 00:46:00,22.5,17.2,30.35,North,0,0.0,0.0,80,0.00,CLR,,0.00,WeatherDisplay:10.37,2013-02-02 05:46:00,
2013-02-02 00:51:00,22.5,17.2,30.34,North,0,0.0,0.0,80,0.00,CLR,,0.00,WeatherDisplay:10.37,2013-02-02 05:51:00,
2013-02-02 00:56:00,22.3,17.0,30.34,North,0,0.0,0.0,80,0.00,CLR,,0.00,WeatherDisplay:10.37,2013-02-02 05:56:00,
2013-02-02 01:01:00,22.3,17.0,30.34,North,0,0.0,0.0,80,0.00,CLR,,0.00,WeatherDisplay:10.37,2013-02-02 06:01:00,
2013-02-02 01:06:00,22.3,17.0,30.34,North,0,0.0,0.0,80,0.00,CLR,,0.00,WeatherDisplay:10.37,2013-02-02 06:06:00,
2013-02-02 01:11:00,22.3,17.0,30.34,North,0,0.0,0.0,80,0.00,CLR,,0.00,WeatherDisplay:10.37,2013-02-02 06:11:00,
2013-02-02 01:16:00,22.1,16.9,30.34,North,0,0.0,0.0,80,0.00,CLR,,0.00,WeatherDisplay:10.37,2013-02-02 06:16:00,
2013-02-02 01:21:00,22.1,17.2,30.34,North,0,0.0,0.0,81,0.00,CLR,,0.00,WeatherDisplay:10.37,2013-02-02 06:21:00,
2013-02-02 01:26:00,22.1,17.2,30.34,North,0,0.0,0.0,81,0.00,CLR,,0.00,WeatherDisplay:10.37,2013-02-02 06:26:00,
2013-02-02 01:31:00,22.1,17.2,30.33,North,0,0.0,0.0,81,0.00,CLR,,0.00,WeatherDisplay:10.37,2013-02-02 06:31:00,
2013-02-02 01:36:00,22.1,17.2,30.33,North,0,0.0,0.0,81,0.00,CLR,,0.00,WeatherDisplay:10.37,2013-02-02 06:36:00,
2013-02-02 01:41:00,22.3,17.6,30.33,North,0,0.0,0.0,82,0.00,CLR,,0.00,WeatherDisplay:10.37,2013-02-02 06:41:00,
2013-02-02 01:46:00,22.3,17.6,30.33,North,0,0.0,0.0,82,0.00,CLR,,0.00,WeatherDisplay:10.37,2013-02-02 06:46:00,
2013-02-02 01:51:00,22.3,17.3,30.33,North,0,0.0,0.0,81,0.00,CLR,,0.00,WeatherDisplay:10.37,2013-02-02 06:51:00,
2013-02-02 01:56:00,22.3,17.3,30.32,North,0,0.0,0.0,81,0.00,CLR,,0.00,WeatherDisplay:10.37,2013-02-02 06:56:00,
2013-02-02 02:01:00,22.3,17.3,30.31,North,0,0.0,0.0,81,0.00,CLR,,0.00,WeatherDisplay:10.37,2013-02-02 07:01:00,
2013-02-02 02:06:00,22.5,17.8,30.31,North,0,0.0,0.0,82,0.00,CLR,,0.00,WeatherDisplay:10.37,2013-02-02 07:06:00,
2013-02-02 02:11:00,22.5,17.8,30.30,North,0,0.0,0.0,82,0.00,CLR,,0.00,WeatherDisplay:10.37,2013-02-02 07:11:00,
2013-02-02 02:16:00,22.6,18.0,30.30,NW,315,2.3,0.0,82,0.00,CLR,,0.00,WeatherDisplay:10.37,2013-02-02 07:16:00,
2013-02-02 02:21:00,22.6,18.0,30.31,NW,315,0.0,0.0,82,0.00,CLR,,0.00,WeatherDisplay:10.37,2013-02-02 07:21:00,
2013-02-02 02:26:00,22.8,18.1,30.31,NW,315,0.0,0.0,82,0.00,CLR,,0.00,WeatherDisplay:10.37,2013-02-02 07:26:00,
2013-02-02 02:31:00,22.8,18.1,30.31,NW,315,0.0,0.0,82,0.00,CLR,,0.00,WeatherDisplay:10.37,2013-02-02 07:31:00,
2013-02-02 02:36:00,23.0,18.0,30.31,NW,315,0.0,0.0,81,0.00,CLR,,0.00,WeatherDisplay:10.37,2013-02-02 07:36:00,
2013-02-02 02:41:00,23.0,18.0,30.32,NW,315,0.0,0.0,81,0.00,CLR,,0.00,WeatherDisplay:10.37,2013-02-02 07:41:00,
2013-02-02 02:46:00,23.0,18.0,30.32,NW,315,0.0,0.0,81,0.00,CLR,,0.00,WeatherDisplay:10.37,2013-02-02 07:46:00,
2013-02-02 02:51:00,23.0,18.0,30.32,NW,315,0.0,0.0,81,0.00,CLR,,0.00,WeatherDisplay:10.37,2013-02-02 07:51:00,
2013-02-02 02:56:00,23.0,18.0,30.32,NW,315,0.0,0.0,81,0.00,CLR,,0.00,WeatherDisplay:10.37,2013-02-02 07:56:00,
2013-02-02 03:01:00,23.2,17.9,30.33,NW,315,0.0,0.0,80,0.00,CLR,,0.00,WeatherDisplay:10.37,2013-02-02 08:01:00,
2013-02-02 03:06:00,23.2,17.9,30.32,NW,315,0.0,0.0,80,0.00,CLR,,0.00,WeatherDisplay:10.37,2013-02-02 08:06:00,
2013-02-02 03:11:00,22.8,17.6,30.32,NW,315,0.0,0.0,80,0.00,CLR,,0.00,WeatherDisplay:10.37,2013-02-02 08:11:00,
2013-02-02 03:16:00,22.6,17.4,30.32,NW,315,0.0,0.0,80,0.00,CLR,,0.00,WeatherDisplay:10.37,2013-02-02 08:16:00,
2013-02-02 03:21:00,22.5,17.2,30.32,NW,315,0.0,0.0,80,0.00,CLR,,0.00,WeatherDisplay:10.37,2013-02-02 08:21:00,
2013-02-02 03:26:00,22.3,16.8,30.32,NW,315,0.0,0.0,79,0.00,CLR,,0.00,WeatherDisplay:10.37,2013-02-02 08:26:00,
2013-02-02 03:31:00,22.3,16.8,30.32,South,180,0.0,0.0,79,0.00,CLR,,0.00,WeatherDisplay:10.37,2013-02-02 08:31:00,
2013-02-02 03:36:00,22.1,16.6,30.32,South,180,0.0,0.0,79,0.00,CLR,,0.00,WeatherDisplay:10.37,2013-02-02 08:36:00,
2013-02-02 03:41:00,22.1,16.9,30.32,South,180,0.0,0.0,80,0.00,CLR,,0.00,WeatherDisplay:10.37,2013-02-02 08:41:00,
2013-02-02 03:46:00,22.1,16.9,30.32,South,180,0.0,0.0,80,0.00,CLR,,0.00,WeatherDisplay:10.37,2013-02-02 08:46:00,
2013-02-02 03:51:00,21.9,17.0,30.32,South,180,0.0,0.0,81,0.00,CLR,,0.00,WeatherDisplay:10.37,2013-02-02 08:51:00,
2013-02-02 03:56:00,21.7,16.8,30.32,South,180,0.0,0.0,81,0.00,CLR,,0.00,WeatherDisplay:10.37,2013-02-02 08:56:00,
2013-02-02 04:01:00,21.6,16.6,30.31,South,180,0.0,0.0,81,0.00,CLR,,0.00,WeatherDisplay:10.37,2013-02-02 09:01:00,
2013-02-02 04:06:00,21.4,16.5,30.32,South,180,0.0,0.0,81,0.00,CLR,,0.00,WeatherDisplay:10.37,2013-02-02 09:06:00,
2013-02-02 04:11:00,21.4,16.5,30.31,West,270,0.0,0.0,81,0.00,CLR,,0.00,WeatherDisplay:10.37,2013-02-02 09:11:00,
2013-02-02 04:16:00,21.2,16.3,30.31,West,270,0.0,0.0,81,0.00,CLR,,0.00,WeatherDisplay:10.37,2013-02-02 09:16:00,
2013-02-02 04:21:00,21.0,16.7,30.31,North,0,0.0,0.0,83,0.00,CLR,,0.00,WeatherDisplay:10.37,2013-02-02 09:21:00,
2013-02-02 04:26:00,21.0,16.7,30.31,West,270,0.0,0.0,83,0.00,CLR,,0.00,WeatherDisplay:10.37,2013-02-02 09:26:00,
2013-02-02 04:31:00,20.8,16.5,30.30,West,270,0.0,0.0,83,0.00,CLR,,0.00,WeatherDisplay:10.37,2013-02-02 09:31:00,
2013-02-02 04:36:00,20.8,16.8,30.30,North,0,0.0,0.0,84,0.00,CLR,,0.00,WeatherDisplay:10.37,2013-02-02 09:36:00,
2013-02-02 04:41:00,20.8,16.8,30.30,NW,315,0.0,0.0,84,0.00,CLR,,0.00,WeatherDisplay:10.37,2013-02-02 09:41:00,
2013-02-02 04:46:00,20.8,17.0,30.30,NW,315,0.0,0.0,85,0.00,CLR,,0.00,WeatherDisplay:10.37,2013-02-02 09:46:00,
2013-02-02 04:51:00,20.7,16.9,30.30,NW,315,0.0,0.0,85,0.00,CLR,,0.00,WeatherDisplay:10.37,2013-02-02 09:51:00,
2013-02-02 04:56:00,20.7,16.9,30.30,NW,315,0.0,0.0,85,0.00,CLR,,0.00,WeatherDisplay:10.37,2013-02-02 09:56:00,
2013-02-02 05:01:00,20.5,16.7,30.30,NW,315,0.0,0.0,85,0.00,CLR,,0.00,WeatherDisplay:10.37,2013-02-02 10:01:00,
2013-02-02 05:06:00,20.5,16.7,30.30,NW,315,0.0,0.0,85,0.00,CLR,,0.00,WeatherDisplay:10.37,2013-02-02 10:06:00,
2013-02-02 05:11:00,20.5,16.7,30.31,NW,315,0.0,0.0,85,0.00,CLR,,0.00,WeatherDisplay:10.37,2013-02-02 10:11:00,
2013-02-02 05:16:00,20.5,16.7,30.31,NW,315,0.0,0.0,85,0.00,CLR,,0.00,WeatherDisplay:10.37,2013-02-02 10:16:00,
2013-02-02 05:21:00,20.5,16.7,30.30,NW,315,0.0,0.0,85,0.00,CLR,,0.00,WeatherDisplay:10.37,2013-02-02 10:21:00,
2013-02-02 05:26:00,20.5,16.7,30.31,NW,315,0.0,0.0,85,0.00,CLR,,0.00,WeatherDisplay:10.37,2013-02-02 10:26:00,
2013-02-02 05:31:00,20.5,16.7,30.31,West,270,0.0,0.0,85,0.00,CLR,,0.00,WeatherDisplay:10.37,2013-02-02 10:31:00,
2013-02-02 05:36:00,20.5,17.0,30.30,West,270,0.0,0.0,86,0.00,CLR,,0.00,WeatherDisplay:10.37,2013-02-02 10:36:00,
2013-02-02 05:41:00,20.5,17.0,30.30,West,270,0.0,0.0,86,0.00,CLR,,0.00,WeatherDisplay:10.37,2013-02-02 10:41:00,
2013-02-02 05:46:00,20.5,17.0,30.30,West,270,0.0,0.0,86,0.00,CLR,,0.00,WeatherDisplay:10.37,2013-02-02 10:46:00,
2013-02-02 05:51:00,20.5,17.0,30.30,West,270,0.0,0.0,86,0.00,CLR,,0.00,WeatherDisplay:10.37,2013-02-02 10:51:00,
2013-02-02 05:56:00,20.7,17.1,30.30,West,270,0.0,0.0,86,0.00,CLR,,0.00,WeatherDisplay:10.37,2013-02-02 10:56:00,
2013-02-02 06:01:00,20.8,17.3,30.30,West,270,0.0,0.0,86,0.00,CLR,,0.00,WeatherDisplay:10.37,2013-02-02 11:01:00,
2013-02-02 06:06:00,21.0,17.8,30.29,West,270,0.0,0.0,87,0.00,CLR,,0.00,WeatherDisplay:10.37,2013-02-02 11:06:00,
2013-02-02 06:11:00,21.2,17.7,30.29,West,270,0.0,0.0,86,0.00,CLR,,0.00,WeatherDisplay:10.37,2013-02-02 11:11:00,
2013-02-02 06:16:00,21.2,17.4,30.29,South,180,2.3,0.0,85,0.00,CLR,,0.00,WeatherDisplay:10.37,2013-02-02 11:16:00,
2013-02-02 06:21:00,21.4,17.6,30.29,South,180,0.0,0.0,85,0.00,CLR,,0.00,WeatherDisplay:10.37,2013-02-02 11:21:00,
2013-02-02 06:26:00,21.4,17.6,30.29,SE,135,2.3,2.3,85,0.00,CLR,,0.00,WeatherDisplay:10.37,2013-02-02 11:26:00,
2013-02-02 06:31:00,21.2,17.4,30.30,SE,135,0.0,0.0,85,0.00,CLR,,0.00,WeatherDisplay:10.37,2013-02-02 11:31:00,
2013-02-02 06:36:00,21.0,17.5,30.30,NW,315,0.0,0.0,86,0.00,CLR,,0.00,WeatherDisplay:10.37,2013-02-02 11:36:00,
2013-02-02 06:41:00,21.0,17.5,30.30,NW,315,0.0,0.0,86,0.00,CLR,,0.00,WeatherDisplay:10.37,2013-02-02 11:41:00,
2013-02-02 06:46:00,21.0,17.8,30.29,NW,315,0.0,0.0,87,0.00,CLR,,0.00,WeatherDisplay:10.37,2013-02-02 11:46:00,
2013-02-02 06:51:00,21.2,17.7,30.30,NW,315,0.0,0.0,86,0.00,CLR,,0.00,WeatherDisplay:10.37,2013-02-02 11:51:00,
2013-02-02 06:56:00,21.6,18.0,30.29,NW,315,0.0,0.0,86,0.00,CLR,,0.00,WeatherDisplay:10.37,2013-02-02 11:56:00,
2013-02-02 07:01:00,21.7,18.2,30.29,NW,315,0.0,0.0,86,0.00,CLR,,0.00,WeatherDisplay:10.37,2013-02-02 12:01:00,
2013-02-02 07:06:00,21.7,18.2,30.29,NW,315,0.0,0.0,86,0.00,CLR,,0.00,WeatherDisplay:10.37,2013-02-02 12:06:00,
2013-02-02 07:11:00,22.3,18.7,30.29,SE,135,0.0,0.0,86,0.00,CLR,,0.00,WeatherDisplay:10.37,2013-02-02 12:11:00,
2013-02-02 07:16:00,22.5,18.9,30.29,SE,135,0.0,0.0,86,0.00,CLR,,0.00,WeatherDisplay:10.37,2013-02-02 12:16:00,
2013-02-02 07:21:00,22.6,19.1,30.28,SE,135,2.3,2.3,86,0.00,CLR,,0.00,WeatherDisplay:10.37,2013-02-02 12:21:00,
2013-02-02 07:26:00,22.6,19.1,30.29,East,90,2.3,2.3,86,0.00,CLR,,0.00,WeatherDisplay:10.37,2013-02-02 12:26:00,
2013-02-02 07:31:00,22.6,19.1,30.30,North,0,0.0,0.0,86,0.00,CLR,,0.00,WeatherDisplay:10.37,2013-02-02 12:31:00,
2013-02-02 07:36:00,22.6,19.1,30.29,East,90,4.6,4.6,86,0.00,CLR,,0.00,WeatherDisplay:10.37,2013-02-02 12:36:00,
2013-02-02 07:41:00,22.8,19.3,30.29,NE,45,2.3,0.0,86,0.00,CLR,,0.00,WeatherDisplay:10.37,2013-02-02 12:41:00,
2013-02-02 07:46:00,22.8,19.3,30.30,NE,45,0.0,0.0,86,0.00,CLR,,0.00,WeatherDisplay:10.37,2013-02-02 12:46:00,
2013-02-02 07:51:00,23.0,19.2,30.29,South,180,0.0,0.0,85,0.00,CLR,,0.00,WeatherDisplay:10.37,2013-02-02 12:51:00,
2013-02-02 07:56:00,23.2,19.3,30.29,North,0,0.0,0.0,85,0.00,CLR,,0.00,WeatherDisplay:10.37,2013-02-02 12:56:00,
2013-02-02 08:01:00,23.2,19.3,30.28,NW,315,0.0,0.0,85,0.00,CLR,,0.00,WeatherDisplay:10.37,2013-02-02 13:01:00,
2013-02-02 08:06:00,23.4,19.5,30.29,NW,315,2.3,0.0,85,0.00,CLR,,0.00,WeatherDisplay:10.37,2013-02-02 13:06:00,
2013-02-02 08:11:00,23.7,19.9,30.29,NW,315,1.1,0.0,85,0.00,CLR,,0.00,WeatherDisplay:10.37,2013-02-02 13:11:00,
2013-02-02 08:16:00,24.1,20.2,30.28,East,90,4.6,4.6,85,0.00,CLR,,0.00,WeatherDisplay:10.37,2013-02-02 13:16:00,
2013-02-02 08:21:00,24.3,20.4,30.29,NW,315,2.3,0.0,85,0.00,CLR,,0.00,WeatherDisplay:10.37,2013-02-02 13:21:00,
2013-02-02 08:26:00,24.4,20.6,30.28,North,0,1.1,0.0,85,0.00,CLR,,0.00,WeatherDisplay:10.37,2013-02-02 13:26:00,
2013-02-02 08:31:00,24.4,20.6,30.28,NE,45,2.3,2.3,85,0.00,CLR,,0.00,WeatherDisplay:10.37,2013-02-02 13:31:00,
2013-02-02 08:36:00,24.6,20.8,30.28,East,90,0.0,0.0,85,0.00,CLR,,0.00,WeatherDisplay:10.37,2013-02-02 13:36:00,
2013-02-02 08:41:00,24.6,20.8,30.28,East,90,1.3,0.0,85,0.00,CLR,,0.00,WeatherDisplay:10.37,2013-02-02 13:41:00,
2013-02-02 08:46:00,24.8,20.4,30.29,North,0,2.3,2.3,83,0.00,CLR,,0.00,WeatherDisplay:10.37,2013-02-02 13:46:00,
2013-02-02 08:51:00,25.2,20.7,30.31,North,0,4.6,4.6,83,0.00,CLR,,0.00,WeatherDisplay:10.37,2013-02-02 13:51:00,
2013-02-02 08:56:00,25.7,21.3,30.33,North,0,4.6,4.6,83,0.00,CLR,,0.00,WeatherDisplay:10.37,2013-02-02 13:56:00,
2013-02-02 09:01:00,26.2,21.8,30.32,North,0,2.3,2.3,83,0.00,CLR,,0.00,WeatherDisplay:10.37,2013-02-02 14:01:00,
2013-02-02 09:06:00,26.8,21.7,30.33,NE,45,4.6,4.6,81,0.00,CLR,,0.00,WeatherDisplay:10.37,2013-02-02 14:06:00,
2013-02-02 09:11:00,27.1,21.5,30.34,NW,315,2.3,2.7,79,0.00,CLR,,0.00,WeatherDisplay:10.37,2013-02-02 14:11:00,
2013-02-02 09:16:00,27.5,21.8,30.34,NNW,338,6.9,6.9,79,0.00,CLR,,0.00,WeatherDisplay:10.37,2013-02-02 14:16:00,
2013-02-02 09:21:00,27.9,22.2,30.34,NW,315,4.6,4.6,79,0.00,CLR,,0.00,WeatherDisplay:10.37,2013-02-02 14:21:00,
2013-02-02 09:26:00,27.9,22.2,30.32,East,90,4.6,4.6,79,0.00,CLR,,0.00,WeatherDisplay:10.37,2013-02-02 14:26:00,
2013-02-02 09:31:00,27.9,21.6,30.33,SW,225,5.8,5.8,77,0.00,CLR,,0.00,WeatherDisplay:10.37,2013-02-02 14:31:00,
2013-02-02 09:36:00,28.0,21.1,30.32,SE,135,4.6,4.6,75,0.00,CLR,,0.00,WeatherDisplay:10.37,2013-02-02 14:36:00,
2013-02-02 09:41:00,28.0,21.1,30.32,North,0,4.6,0.0,75,0.00,CLR,,0.00,WeatherDisplay:10.37,2013-02-02 14:41:00,
2013-02-02 09:46:00,28.0,21.1,30.33,SW,225,2.3,2.3,75,0.00,CLR,,0.00,WeatherDisplay:10.37,2013-02-02 14:46:00,
2013-02-02 09:51:00,28.2,21.3,30.34,SW,225,4.6,0.0,75,0.00,CLR,,0.00,WeatherDisplay:10.37,2013-02-02 14:51:00,
2013-02-02 09:56:00,28.4,22.7,30.34,West,270,4.6,4.6,79,0.00,CLR,,0.00,WeatherDisplay:10.37,2013-02-02 14:56:00,
2013-02-02 10:01:00,28.4,22.4,30.35,West,270,4.6,4.6,78,0.00,CLR,,0.00,WeatherDisplay:10.37,2013-02-02 15:01:00,
2013-02-02 10:06:00,28.4,22.4,30.35,SW,225,2.3,0.0,78,0.00,CLR,,0.00,WeatherDisplay:10.37,2013-02-02 15:06:00,
2013-02-02 10:11:00,28.6,22.3,30.34,West,270,2.3,0.0,77,0.00,CLR,,0.00,WeatherDisplay:10.37,2013-02-02 15:11:00,
2013-02-02 10:16:00,28.6,22.3,30.35,SW,225,2.3,2.7,77,0.00,CLR,,0.00,WeatherDisplay:10.37,2013-02-02 15:16:00,
2013-02-02 10:21:00,28.8,22.5,30.34,South,180,4.6,4.6,77,0.00,CLR,,0.00,WeatherDisplay:10.37,2013-02-02 15:21:00,
2013-02-02 10:26:00,28.8,22.5,30.34,SW,225,4.6,4.6,77,0.00,CLR,,0.00,WeatherDisplay:10.37,2013-02-02 15:26:00,
2013-02-02 10:31:00,28.9,22.3,30.34,South,180,5.8,5.8,76,0.00,CLR,,0.00,WeatherDisplay:10.37,2013-02-02 15:31:00,
2013-02-02 10:36:00,28.9,22.6,30.33,SE,135,4.6,4.6,77,0.00,CLR,,0.00,WeatherDisplay:10.37,2013-02-02 15:36:00,
2013-02-02 10:41:00,28.8,22.5,30.33,SE,135,10.4,10.4,77,0.00,CLR,,0.00,WeatherDisplay:10.37,2013-02-02 15:41:00,
2013-02-02 10:46:00,28.4,22.4,30.32,SW,225,11.5,11.5,78,0.00,CLR,,0.00,WeatherDisplay:10.37,2013-02-02 15:46:00,
2013-02-02 10:51:00,27.7,21.7,30.32,SE,135,13.8,13.8,78,0.00,CLR,,0.00,WeatherDisplay:10.37,2013-02-02 15:51:00,
2013-02-02 10:56:00,26.8,22.0,30.30,SE,135,12.7,12.7,82,0.00,CLR,,0.00,WeatherDisplay:10.37,2013-02-02 15:56:00,
2013-02-02 11:01:00,26.6,22.1,30.30,South,180,13.8,13.8,83,0.00,CLR,,0.00,WeatherDisplay:10.37,2013-02-02 16:01:00,
2013-02-02 11:06:00,26.4,22.8,30.30,SW,225,5.8,5.8,86,0.00,CLR,,0.00,WeatherDisplay:10.37,2013-02-02 16:06:00,
2013-02-02 11:11:00,26.4,23.1,30.30,South,180,5.8,5.8,87,0.00,CLR,,0.00,WeatherDisplay:10.37,2013-02-02 16:11:00,
2013-02-02 11:16:00,26.4,23.3,30.30,SE,135,6.9,6.9,88,0.00,CLR,,0.00,WeatherDisplay:10.37,2013-02-02 16:16:00,
2013-02-02 11:21:00,26.4,23.6,30.29,SW,225,8.1,8.1,89,0.00,CLR,,0.00,WeatherDisplay:10.37,2013-02-02 16:21:00,
2013-02-02 11:26:00,26.6,23.8,30.29,WSW,248,6.9,6.9,89,0.00,CLR,,0.00,WeatherDisplay:10.37,2013-02-02 16:26:00,
2013-02-02 11:31:00,26.8,24.2,30.28,SE,135,6.9,6.9,90,0.00,CLR,,0.00,WeatherDisplay:10.37,2013-02-02 16:31:00,
2013-02-02 11:36:00,27.1,24.9,30.28,South,180,6.9,6.9,91,0.00,CLR,,0.00,WeatherDisplay:10.37,2013-02-02 16:36:00,
2013-02-02 11:41:00,27.5,25.2,30.28,WSW,248,5.8,5.8,91,0.00,CLR,,0.00,WeatherDisplay:10.37,2013-02-02 16:41:00,
2013-02-02 11:46:00,28.0,26.0,30.27,SW,225,5.8,5.8,92,0.00,CLR,,0.00,WeatherDisplay:10.37,2013-02-02 16:46:00,
2013-02-02 11:51:00,28.6,27.6,30.27,SW,225,5.8,5.8,96,0.00,CLR,,0.00,WeatherDisplay:10.37,2013-02-02 16:51:00,
2013-02-02 11:56:00,28.9,28.2,30.27,SW,225,8.1,8.1,97,0.00,CLR,,0.00,WeatherDisplay:10.37,2013-02-02 16:56:00,
2013-02-02 12:01:00,29.3,28.6,30.26,SW,225,5.8,5.8,97,0.00,CLR,,0.00,WeatherDisplay:10.37,2013-02-02 17:01:00,
2013-02-02 12:06:00,29.3,28.6,30.25,NW,315,8.1,8.1,97,0.00,CLR,,0.00,WeatherDisplay:10.37,2013-02-02 17:06:00,
2013-02-02 12:11:00,29.7,28.7,30.25,SW,225,11.5,11.5,96,0.00,CLR,,0.00,WeatherDisplay:10.37,2013-02-02 17:11:00,
2013-02-02 12:16:00,29.8,28.8,30.25,SSW,202,5.8,5.8,96,0.00,CLR,,0.00,WeatherDisplay:10.37,2013-02-02 17:16:00,
2013-02-02 12:21:00,30.2,28.9,30.24,WSW,248,6.9,6.9,95,0.00,CLR,,0.00,WeatherDisplay:10.37,2013-02-02 17:21:00,
2013-02-02 12:26:00,30.7,29.2,30.24,South,180,8.1,8.1,94,0.00,CLR,,0.00,WeatherDisplay:10.37,2013-02-02 17:26:00,
2013-02-02 12:31:00,31.6,29.8,30.23,SW,225,6.9,6.9,93,0.00,CLR,,0.00,WeatherDisplay:10.37,2013-02-02 17:31:00,
2013-02-02 12:36:00,32.0,29.4,30.23,SW,225,11.5,11.5,90,0.00,CLR,,0.00,WeatherDisplay:10.37,2013-02-02 17:36:00,
2013-02-02 12:41:00,32.4,28.9,30.23,SSW,202,16.1,16.1,87,0.00,CLR,,0.00,WeatherDisplay:10.37,2013-02-02 17:41:00,
2013-02-02 12:46:00,32.4,28.4,30.22,SW,225,16.1,16.1,85,0.00,CLR,,0.00,WeatherDisplay:10.37,2013-02-02 17:46:00,
2013-02-02 12:51:00,32.4,28.1,30.22,SW,225,11.5,11.5,84,0.00,CLR,,0.00,WeatherDisplay:10.37,2013-02-02 17:51:00,
2013-02-02 12:56:00,32.7,28.4,30.22,SW,225,8.1,8.1,84,0.00,CLR,,0.00,WeatherDisplay:10.37,2013-02-02 17:56:00,
2013-02-02 13:01:00,32.9,28.3,30.21,SW,225,6.9,6.9,83,0.00,CLR,,0.00,WeatherDisplay:10.37,2013-02-02 18:01:00,
2013-02-02 13:06:00,33.1,28.5,30.20,NW,315,8.1,8.1,83,0.00,CLR,,0.00,WeatherDisplay:10.37,2013-02-02 18:06:00,
2013-02-02 13:11:00,33.1,28.5,30.20,WSW,248,4.6,5.7,83,0.00,CLR,,0.00,WeatherDisplay:10.37,2013-02-02 18:11:00,
2013-02-02 13:16:00,33.3,28.7,30.19,West,270,8.1,8.1,83,0.00,CLR,,0.00,WeatherDisplay:10.37,2013-02-02 18:16:00,
2013-02-02 13:21:00,33.3,28.7,30.19,SSW,202,8.1,8.1,83,0.00,CLR,,0.00,WeatherDisplay:10.37,2013-02-02 18:21:00,
2013-02-02 13:26:00,33.6,29.0,30.19,WSW,248,8.1,8.1,83,0.01,RA,,0.01,WeatherDisplay:10.37,2013-02-02 18:26:00,
2013-02-02 13:31:00,33.8,29.2,30.18,South,180,10.4,10.4,83,0.01,RA,,0.01,WeatherDisplay:10.37,2013-02-02 18:31:00,
2013-02-02 13:36:00,34.2,29.5,30.17,SSW,202,6.9,6.9,83,0.02,RA,,0.02,WeatherDisplay:10.37,2013-02-02 18:36:00,
2013-02-02 13:41:00,34.2,29.5,30.17,South,180,12.7,12.7,83,0.02,RA,,0.02,WeatherDisplay:10.37,2013-02-02 18:41:00,
2013-02-02 13:46:00,34.3,29.4,30.17,SW,225,10.4,10.4,82,0.02,,,0.02,WeatherDisplay:10.37,2013-02-02 18:46:00,
2013-02-02 13:51:00,34.5,29.9,30.17,South,180,6.9,6.9,83,0.02,CLR,,0.02,WeatherDisplay:10.37,2013-02-02 18:51:00,
2013-02-02 13:56:00,34.9,30.2,30.17,NW,315,11.5,11.5,83,0.02,CLR,,0.02,WeatherDisplay:10.37,2013-02-02 18:56:00,
2013-02-02 14:01:00,34.9,30.2,30.17,SW,225,8.1,8.1,83,0.04,RA,,0.04,WeatherDisplay:10.37,2013-02-02 19:01:00,
2013-02-02 14:06:00,34.5,29.9,30.16,South,180,10.4,10.4,83,0.04,RA,,0.04,WeatherDisplay:10.37,2013-02-02 19:06:00,
2013-02-02 14:11:00,34.5,29.9,30.17,SW,225,11.5,11.5,83,0.04,,,0.04,WeatherDisplay:10.37,2013-02-02 19:11:00,
2013-02-02 14:16:00,34.5,29.9,30.16,South,180,11.4,11.4,83,0.04,CLR,,0.04,WeatherDisplay:10.37,2013-02-02 19:16:00,
2013-02-02 14:21:00,34.7,30.4,30.16,SW,225,10.4,10.4,84,0.04,CLR,,0.04,WeatherDisplay:10.37,2013-02-02 19:21:00,
2013-02-02 14:26:00,34.7,30.4,30.16,South,180,10.4,10.4,84,0.02,CLR,,0.04,WeatherDisplay:10.37,2013-02-02 19:26:00,
2013-02-02 14:31:00,34.9,30.2,30.15,SE,135,4.6,5.7,83,0.02,CLR,,0.04,WeatherDisplay:10.37,2013-02-02 19:31:00,
2013-02-02 14:36:00,34.9,30.2,30.15,South,180,10.4,10.4,83,0.01,CLR,,0.04,WeatherDisplay:10.37,2013-02-02 19:36:00,
2013-02-02 14:41:00,34.9,30.2,30.15,SSW,202,6.9,6.9,83,0.01,CLR,,0.04,WeatherDisplay:10.37,2013-02-02 19:41:00,
2013-02-02 14:46:00,34.9,30.5,30.15,SW,225,5.8,5.8,84,0.01,CLR,,0.04,WeatherDisplay:10.37,2013-02-02 19:46:00,
2013-02-02 14:51:00,34.9,30.5,30.15,SW,225,6.9,6.9,84,0.01,CLR,,0.04,WeatherDisplay:10.37,2013-02-02 19:51:00,
2013-02-02 14:56:00,34.9,30.5,30.15,SW,225,5.8,5.8,84,0.01,CLR,,0.04,WeatherDisplay:10.37,2013-02-02 19:56:00,
2013-02-02 15:01:00,35.1,30.7,30.14,SE,135,10.4,10.4,84,0.00,CLR,,0.04,WeatherDisplay:10.37,2013-02-02 20:01:00,
2013-02-02 15:06:00,35.1,30.7,30.14,SW,225,5.8,5.8,84,0.00,CLR,,0.04,WeatherDisplay:10.37,2013-02-02 20:06:00,
2013-02-02 15:11:00,35.4,31.1,30.14,SW,225,10.4,10.4,84,0.00,CLR,,0.04,WeatherDisplay:10.37,2013-02-02 20:11:00,
2013-02-02 15:16:00,35.6,30.9,30.13,SW,225,13.8,13.8,83,0.00,CLR,,0.04,WeatherDisplay:10.37,2013-02-02 20:16:00,
2013-02-02 15:21:00,35.8,30.8,30.13,SW,225,13.8,13.8,82,0.00,CLR,,0.04,WeatherDisplay:10.37,2013-02-02 20:21:00,
2013-02-02 15:26:00,36.0,31.0,30.13,SSW,202,11.5,11.5,82,0.00,CLR,,0.04,WeatherDisplay:10.37,2013-02-02 20:26:00,
2013-02-02 15:31:00,35.8,30.8,30.13,SSW,202,11.5,11.5,82,0.00,CLR,,0.04,WeatherDisplay:10.37,2013-02-02 20:31:00,
2013-02-02 15:36:00,35.8,30.8,30.13,SW,225,8.1,8.1,82,0.00,CLR,,0.04,WeatherDisplay:10.37,2013-02-02 20:36:00,
2013-02-02 15:41:00,36.0,31.0,30.12,SW,225,6.9,6.9,82,0.00,CLR,,0.04,WeatherDisplay:10.37,2013-02-02 20:41:00,
2013-02-02 15:46:00,36.0,31.0,30.12,SW,225,8.1,8.1,82,0.00,CLR,,0.04,WeatherDisplay:10.37,2013-02-02 20:46:00,
2013-02-02 15:51:00,36.0,31.0,30.11,South,180,6.9,6.9,82,0.00,CLR,,0.04,WeatherDisplay:10.37,2013-02-02 20:51:00,
2013-02-02 15:56:00,36.0,30.7,30.12,South,180,10.4,10.4,81,0.00,CLR,,0.04,WeatherDisplay:10.37,2013-02-02 20:56:00,
2013-02-02 16:01:00,35.8,30.5,30.12,SW,225,10.4,10.4,81,0.00,CLR,,0.04,WeatherDisplay:10.37,2013-02-02 21:01:00,
2013-02-02 16:06:00,35.8,30.5,30.12,SW,225,10.4,10.4,81,0.00,CLR,,0.04,WeatherDisplay:10.37,2013-02-02 21:06:00,
2013-02-02 16:11:00,36.0,30.7,30.12,SW,225,5.8,5.8,81,0.00,CLR,,0.04,WeatherDisplay:10.37,2013-02-02 21:11:00,
2013-02-02 16:16:00,36.0,30.7,30.12,SW,225,5.8,5.8,81,0.00,CLR,,0.04,WeatherDisplay:10.37,2013-02-02 21:16:00,
2013-02-02 16:21:00,36.0,30.7,30.12,SE,135,10.4,10.4,81,0.00,CLR,,0.04,WeatherDisplay:10.37,2013-02-02 21:21:00,
2013-02-02 16:26:00,36.1,30.9,30.12,SW,225,4.6,4.6,81,0.00,CLR,,0.04,WeatherDisplay:10.37,2013-02-02 21:26:00,
2013-02-02 16:31:00,36.1,30.9,30.12,SSW,202,5.8,5.8,81,0.00,CLR,,0.04,WeatherDisplay:10.37,2013-02-02 21:31:00,
2013-02-02 16:36:00,36.0,30.7,30.12,SW,225,4.6,4.6,81,0.00,CLR,,0.04,WeatherDisplay:10.37,2013-02-02 21:36:00,
2013-02-02 16:41:00,36.0,30.7,30.12,North,0,4.6,0.0,81,0.00,CLR,,0.04,WeatherDisplay:10.37,2013-02-02 21:41:00,
2013-02-02 16:46:00,35.8,30.5,30.12,SSW,202,6.9,6.9,81,0.00,CLR,,0.04,WeatherDisplay:10.37,2013-02-02 21:46:00,
2013-02-02 16:51:00,35.8,30.2,30.12,SW,225,4.6,4.6,80,0.00,CLR,,0.04,WeatherDisplay:10.37,2013-02-02 21:51:00,
2013-02-02 16:56:00,35.8,30.5,30.11,South,180,4.6,0.0,81,0.00,CLR,,0.04,WeatherDisplay:10.37,2013-02-02 21:56:00,
2013-02-02 17:01:00,35.8,30.5,30.11,SE,135,4.6,4.6,81,0.00,CLR,,0.04,WeatherDisplay:10.37,2013-02-02 22:01:00,
2013-02-02 17:06:00,35.8,30.5,30.11,SW,225,4.4,4.4,81,0.00,CLR,,0.04,WeatherDisplay:10.37,2013-02-02 22:06:00,
2013-02-02 17:11:00,35.8,30.5,30.11,SSW,202,6.9,6.9,81,0.00,CLR,,0.04,WeatherDisplay:10.37,2013-02-02 22:11:00,
2013-02-02 17:16:00,35.8,30.5,30.11,South,180,6.9,6.9,81,0.00,CLR,,0.04,WeatherDisplay:10.37,2013-02-02 22:16:00,
2013-02-02 17:21:00,35.6,30.3,30.11,South,180,4.6,4.6,81,0.00,CLR,,0.04,WeatherDisplay:10.37,2013-02-02 22:21:00,
2013-02-02 17:26:00,35.6,30.3,30.11,West,270,4.6,4.6,81,0.00,CLR,,0.04,WeatherDisplay:10.37,2013-02-02 22:26:00,
2013-02-02 17:31:00,35.6,30.3,30.11,SW,225,2.3,2.3,81,0.00,CLR,,0.04,WeatherDisplay:10.37,2013-02-02 22:31:00,
2013-02-02 17:36:00,35.6,30.3,30.11,SSW,202,5.8,5.8,81,0.00,CLR,,0.04,WeatherDisplay:10.37,2013-02-02 22:36:00,
2013-02-02 17:41:00,35.6,30.6,30.10,South,180,6.9,6.9,82,0.00,CLR,,0.04,WeatherDisplay:10.37,2013-02-02 22:41:00,
2013-02-02 17:46:00,35.6,30.6,30.10,SSW,202,5.8,5.8,82,0.00,CLR,,0.04,WeatherDisplay:10.37,2013-02-02 22:46:00,
2013-02-02 17:51:00,35.4,30.5,30.10,SW,225,12.7,12.7,82,0.00,CLR,,0.04,WeatherDisplay:10.37,2013-02-02 22:51:00,
2013-02-02 17:56:00,35.4,30.5,30.10,South,180,5.8,5.8,82,0.00,CLR,,0.04,WeatherDisplay:10.37,2013-02-02 22:56:00,
2013-02-02 18:01:00,35.2,30.3,30.10,South,180,5.8,5.8,82,0.00,CLR,,0.04,WeatherDisplay:10.37,2013-02-02 23:01:00,
2013-02-02 18:06:00,35.1,30.1,30.10,South,180,4.6,4.6,82,0.00,CLR,,0.04,WeatherDisplay:10.37,2013-02-02 23:06:00,
2013-02-02 18:11:00,34.9,29.9,30.10,SW,225,5.8,5.8,82,0.00,CLR,,0.04,WeatherDisplay:10.37,2013-02-02 23:11:00,
2013-02-02 18:16:00,34.7,30.1,30.11,SW,225,5.8,5.8,83,0.00,CLR,,0.04,WeatherDisplay:10.37,2013-02-02 23:16:00,
2013-02-02 18:21:00,34.7,30.1,30.11,SW,225,4.6,4.6,83,0.00,CLR,,0.04,WeatherDisplay:10.37,2013-02-02 23:21:00,
2013-02-02 18:26:00,34.7,30.1,30.11,SW,225,4.6,4.6,83,0.00,CLR,,0.04,WeatherDisplay:10.37,2013-02-02 23:26:00,
2013-02-02 18:31:00,34.7,30.4,30.11,SW,225,4.6,4.6,84,0.00,CLR,,0.04,WeatherDisplay:10.37,2013-02-02 23:31:00,
2013-02-02 18:36:00,34.9,30.5,30.11,West,270,5.8,5.8,84,0.00,CLR,,0.04,WeatherDisplay:10.37,2013-02-02 23:36:00,
2013-02-02 18:41:00,34.9,30.8,30.11,South,180,4.6,4.6,85,0.00,CLR,,0.04,WeatherDisplay:10.37,2013-02-02 23:41:00,
2013-02-02 18:46:00,35.1,31.0,30.11,SW,225,10.4,10.4,85,0.00,CLR,,0.04,WeatherDisplay:10.37,2013-02-02 23:46:00,
2013-02-02 18:51:00,35.2,31.5,30.11,South,180,5.8,5.8,86,0.00,CLR,,0.04,WeatherDisplay:10.37,2013-02-02 23:51:00,
2013-02-02 18:56:00,35.2,31.5,30.10,East,90,6.9,6.9,86,0.00,CLR,,0.04,WeatherDisplay:10.37,2013-02-02 23:56:00,
2013-02-02 19:01:00,35.1,31.3,30.11,SW,225,8.1,8.1,86,0.00,CLR,,0.04,WeatherDisplay:10.37,2013-02-03 00:01:00,
2013-02-02 19:06:00,35.1,31.6,30.11,SW,225,5.8,5.8,87,0.00,CLR,,0.04,WeatherDisplay:10.37,2013-02-03 00:06:00,
2013-02-02 19:11:00,35.1,31.6,30.11,SW,225,6.9,6.9,87,0.00,CLR,,0.04,WeatherDisplay:10.37,2013-02-03 00:11:00,
2013-02-02 19:16:00,35.1,31.6,30.11,West,270,5.8,5.8,87,0.00,CLR,,0.04,WeatherDisplay:10.37,2013-02-03 00:16:00,
2013-02-02 19:21:00,35.2,32.0,30.11,SW,225,6.9,6.9,88,0.00,CLR,,0.04,WeatherDisplay:10.37,2013-02-03 00:21:00,
2013-02-02 19:26:00,35.2,32.0,30.10,SW,225,6.9,6.9,88,0.00,CLR,,0.04,WeatherDisplay:10.37,2013-02-03 00:26:00,
2013-02-02 19:31:00,35.2,32.0,30.11,West,270,5.8,5.8,88,0.00,CLR,,0.04,WeatherDisplay:10.37,2013-02-03 00:31:00,
2013-02-02 19:36:00,35.2,32.3,30.11,SW,225,7.0,7.0,89,0.00,CLR,,0.04,WeatherDisplay:10.37,2013-02-03 00:36:00,
2013-02-02 19:41:00,35.4,32.5,30.11,SW,225,6.9,6.9,89,0.00,CLR,,0.04,WeatherDisplay:10.37,2013-02-03 00:41:00,
2013-02-02 19:46:00,35.2,32.3,30.11,SW,225,6.9,6.9,89,0.00,CLR,,0.04,WeatherDisplay:10.37,2013-02-03 00:46:00,
2013-02-02 19:51:00,35.2,32.6,30.10,SW,225,8.1,8.1,90,0.00,CLR,,0.04,WeatherDisplay:10.37,2013-02-03 00:51:00,
2013-02-02 19:56:00,35.2,32.6,30.10,South,180,8.1,8.1,90,0.00,CLR,,0.04,WeatherDisplay:10.37,2013-02-03 00:56:00,
2013-02-02 20:01:00,35.4,32.8,30.11,SW,225,5.8,5.8,90,0.00,CLR,,0.04,WeatherDisplay:10.37,2013-02-03 01:01:00,
2013-02-02 20:06:00,35.6,33.0,30.11,SSW,202,5.8,5.8,90,0.00,CLR,,0.04,WeatherDisplay:10.37,2013-02-03 01:06:00,
2013-02-02 20:11:00,35.6,33.0,30.11,SW,225,5.8,5.8,90,0.00,CLR,,0.04,WeatherDisplay:10.37,2013-02-03 01:11:00,
2013-02-02 20:16:00,35.8,33.4,30.11,SW,225,4.6,4.6,91,0.00,CLR,,0.04,WeatherDisplay:10.37,2013-02-03 01:16:00,
2013-02-02 20:21:00,35.8,33.4,30.11,SW,225,4.6,4.6,91,0.00,CLR,,0.04,WeatherDisplay:10.37,2013-02-03 01:21:00,
2013-02-02 20:26:00,35.8,33.4,30.12,SSW,202,10.4,10.4,91,0.00,CLR,,0.04,WeatherDisplay:10.37,2013-02-03 01:26:00,
2013-02-02 20:31:00,35.8,33.4,30.11,South,180,5.8,5.8,91,0.00,CLR,,0.04,WeatherDisplay:10.37,2013-02-03 01:31:00,
2013-02-02 20:36:00,35.8,33.4,30.11,SSW,202,5.8,5.8,91,0.00,CLR,,0.04,WeatherDisplay:10.37,2013-02-03 01:36:00,
2013-02-02 20:41:00,35.8,33.4,30.11,SW,225,6.9,6.9,91,0.00,CLR,,0.04,WeatherDisplay:10.37,2013-02-03 01:41:00,
2013-02-02 20:46:00,35.8,33.4,30.11,NW,315,4.6,4.6,91,0.00,CLR,,0.04,WeatherDisplay:10.37,2013-02-03 01:46:00,
2013-02-02 20:51:00,35.6,33.2,30.12,SW,225,4.6,4.6,91,0.00,CLR,,0.04,WeatherDisplay:10.37,2013-02-03 01:51:00,
2013-02-02 20:56:00,35.2,33.1,30.12,West,270,5.8,0.0,92,0.00,CLR,,0.04,WeatherDisplay:10.37,2013-02-03 01:56:00,
2013-02-02 21:01:00,35.1,33.0,30.13,SW,225,2.3,2.3,92,0.00,CLR,,0.04,WeatherDisplay:10.37,2013-02-03 02:01:00,
2013-02-02 21:06:00,35.1,33.0,30.13,SW,225,2.3,2.3,92,0.00,CLR,,0.04,WeatherDisplay:10.37,2013-02-03 02:06:00,
2013-02-02 21:11:00,34.7,32.6,30.12,SW,225,2.3,2.3,92,0.00,CLR,,0.04,WeatherDisplay:10.37,2013-02-03 02:11:00,
2013-02-02 21:16:00,34.5,32.7,30.12,SW,225,4.6,4.6,93,0.00,CLR,,0.04,WeatherDisplay:10.37,2013-02-03 02:16:00,
2013-02-02 21:21:00,34.5,32.7,30.12,SW,225,2.3,0.0,93,0.00,CLR,,0.04,WeatherDisplay:10.37,2013-02-03 02:21:00,
2013-02-02 21:26:00,34.2,32.3,30.12,SW,225,4.6,0.0,93,0.00,CLR,,0.04,WeatherDisplay:10.37,2013-02-03 02:26:00,
2013-02-02 21:31:00,34.2,32.3,30.12,NW,315,2.7,0.0,93,0.00,CLR,,0.04,WeatherDisplay:10.37,2013-02-03 02:31:00,
2013-02-02 21:36:00,33.6,32.1,30.12,North,0,0.0,0.0,94,0.00,CLR,,0.04,WeatherDisplay:10.37,2013-02-03 02:36:00,
2013-02-02 21:41:00,33.1,31.5,30.12,SW,225,2.3,2.3,94,0.00,CLR,,0.04,WeatherDisplay:10.37,2013-02-03 02:41:00,
2013-02-02 21:46:00,32.7,31.2,30.12,West,270,4.6,0.0,94,0.00,CLR,,0.04,WeatherDisplay:10.37,2013-02-03 02:46:00,
2013-02-02 21:51:00,32.4,30.8,30.12,South,180,1.1,0.0,94,0.00,CLR,,0.04,WeatherDisplay:10.37,2013-02-03 02:51:00,
2013-02-02 21:56:00,32.2,30.6,30.12,West,270,2.3,0.0,94,0.00,CLR,,0.04,WeatherDisplay:10.37,2013-02-03 02:56:00,
2013-02-02 22:01:00,32.0,30.5,30.12,West,270,0.0,0.0,94,0.00,CLR,,0.04,WeatherDisplay:10.37,2013-02-03 03:01:00,
2013-02-02 22:06:00,31.8,30.6,30.12,South,180,2.3,2.3,95,0.00,CLR,,0.04,WeatherDisplay:10.37,2013-02-03 03:06:00,
2013-02-02 22:11:00,31.8,30.8,30.13,West,270,4.6,4.6,96,0.00,CLR,,0.04,WeatherDisplay:10.37,2013-02-03 03:11:00,
2013-02-02 22:16:00,32.4,31.1,30.13,SW,225,4.6,4.6,95,0.00,CLR,,0.04,WeatherDisplay:10.37,2013-02-03 03:16:00,
2013-02-02 22:21:00,32.7,31.7,30.13,West,270,2.3,0.0,96,0.00,CLR,,0.04,WeatherDisplay:10.37,2013-02-03 03:21:00,
2013-02-02 22:26:00,32.5,31.5,30.13,SW,225,1.1,0.0,96,0.00,CLR,,0.04,WeatherDisplay:10.37,2013-02-03 03:26:00,
2013-02-02 22:31:00,32.4,31.3,30.13,North,0,0.0,0.0,96,0.00,CLR,,0.04,WeatherDisplay:10.37,2013-02-03 03:31:00,
2013-02-02 22:36:00,32.4,31.6,30.13,NW,315,4.6,4.6,97,0.00,CLR,,0.04,WeatherDisplay:10.37,2013-02-03 03:36:00,
2013-02-02 22:41:00,32.5,31.8,30.13,SW,225,4.6,4.6,97,0.00,CLR,,0.04,WeatherDisplay:10.37,2013-02-03 03:41:00,
2013-02-02 22:46:00,33.3,32.8,30.13,SW,225,5.8,5.8,98,0.00,CLR,,0.04,WeatherDisplay:10.37,2013-02-03 03:46:00,
2013-02-02 22:51:00,33.8,33.0,30.12,SW,225,4.6,4.6,97,0.00,CLR,,0.04,WeatherDisplay:10.37,2013-02-03 03:51:00,
2013-02-02 22:56:00,33.8,33.3,30.13,SW,225,0.0,0.0,98,0.00,CLR,,0.04,WeatherDisplay:10.37,2013-02-03 03:56:00,
2013-02-02 23:01:00,33.6,33.4,30.13,SW,225,0.0,0.0,99,0.00,CLR,,0.04,WeatherDisplay:10.37,2013-02-03 04:01:00,
2013-02-02 23:06:00,33.6,33.4,30.13,SW,225,0.0,0.0,99,0.00,CLR,,0.04,WeatherDisplay:10.37,2013-02-03 04:06:00,
2013-02-02 23:11:00,32.5,32.0,30.13,SW,225,0.0,0.0,98,0.00,CLR,,0.04,WeatherDisplay:10.37,2013-02-03 04:11:00,
2013-02-02 23:16:00,32.2,31.7,30.13,SW,225,2.3,0.0,98,0.00,CLR,,0.04,WeatherDisplay:10.37,2013-02-03 04:16:00,
2013-02-02 23:21:00,32.0,31.5,30.12,NW,315,2.3,0.0,98,0.00,CLR,,0.04,WeatherDisplay:10.37,2013-02-03 04:21:00,
2013-02-02 23:26:00,31.5,31.2,30.13,West,270,1.1,0.0,99,0.00,CLR,,0.04,WeatherDisplay:10.37,2013-02-03 04:26:00,
2013-02-02 23:31:00,31.1,30.9,30.13,NW,315,4.6,4.6,99,0.00,CLR,,0.04,WeatherDisplay:10.37,2013-02-03 04:31:00,
2013-02-02 23:36:00,30.7,30.5,30.13,NW,315,0.0,0.0,99,0.00,CLR,,0.04,WeatherDisplay:10.37,2013-02-03 04:36:00,
2013-02-02 23:41:00,30.4,29.9,30.13,NW,315,0.0,0.0,98,0.00,CLR,,0.04,WeatherDisplay:10.37,2013-02-03 04:41:00,
2013-02-02 23:46:00,30.4,30.1,30.13,NW,315,2.7,2.7,99,0.00,CLR,,0.04,WeatherDisplay:10.37,2013-02-03 04:46:00,
2013-02-02 23:51:00,30.4,30.1,30.13,NW,315,0.0,0.0,99,0.00,CLR,,0.04,WeatherDisplay:10.37,2013-02-03 04:51:00,
2013-02-02 23:56:00,30.4,30.1,30.12,NW,315,0.0,0.0,99,0.00,CLR,,0.04,WeatherDisplay:10.37,2013-02-03 04:56:00,